Flag for Finland Weather past 2 weeks in Rovaniemi, Finland

Now
46 °F

Clear.


Feels Like: 43 °F
Forecast: 44 / 53 °F
Wind: 7 mph from East

Location: Rovaniemi Airport

Current Time: Sep 18, 2014 at 10:48:23 PM

Latest Report: Sep 18, 2014 at 10:20 PM


Visibility: 10 mi

Pressure: 30.12 "Hg

Humidity: 87%

Dew point: 43 °F

Location of RovaniemiLocation

Historic Weather in Rovaniemi — Graph

°F

Rovaniemi temperature yesterday

Maximum temperature yesterday: 57 °F (at 3:50 PM)
Minimum temperature yesterday: 41 °F (at 4:50 AM)
Average temperature yesterday: 49 °F

Past Weeks' High & Low Weather Summary

 TemperatureHumidityPressure
High64 °F (Sep 4, 2:20 PM)100% (Sep 4, 4:20 AM)30.42 "Hg (Sep 4, 4:20 AM)
Low34 °F (Sep 16, 7:20 AM)38% (Sep 14, 5:20 PM)29.86 "Hg (Sep 9, 2:50 PM)
Average52 °F82%30.11 "Hg
* Reported Sep 3 9:20 PM — Sep 18 9:20 PM, Rovaniemi, Weather by CustomWeather, © 2014

Note: Actual official high and low records may vary slightly from our data, if they occured in-between our weather recording intervals... More about our weather records

Advertising

Rovaniemi weather history for previous 24 hours

 ConditionsComfort  
Time TempWeatherWind HumidityBarometerVisibility
9:20 PM
Sep 18
46 °FPassing clouds.7 mph87%30.15 "HgN/A
8:50 PM46 °FClear.3 mph87%30.15 "Hg10 mi
8:20 PM48 °FPassing clouds.3 mph82%30.15 "HgN/A
7:50 PM50 °FSunny.6 mph76%30.15 "Hg10 mi
7:20 PM52 °FPassing clouds.3 mph72%30.15 "HgN/A
6:50 PM52 °FPassing clouds.5 mph72%30.15 "HgN/A
6:20 PM54 °FPassing clouds.3 mph67%30.15 "HgN/A
5:50 PM54 °FPassing clouds.3 mph67%30.15 "HgN/A
5:20 PM54 °FPassing clouds.3 mph63%30.18 "HgN/A
4:50 PM54 °FSunny.2 mph63%30.18 "Hg10 mi
4:20 PM54 °FSunny.2 mph63%30.18 "Hg10 mi
3:50 PM55 °FPassing clouds.3 mph59%30.18 "HgN/A
3:20 PM54 °FSunny.6 mph58%30.18 "Hg10 mi
2:50 PM54 °FSunny.5 mph63%30.18 "Hg10 mi
2:20 PM54 °FPartly sunny.5 mph67%30.18 "HgN/A
1:50 PM52 °FSunny.5 mph67%30.18 "Hg10 mi
1:20 PM52 °FSunny.5 mph67%30.18 "Hg10 mi
12:50 PM52 °FLight rain. Broken clouds.5 mph67%30.18 "HgN/A
12:20 PM50 °FSunny.3 mph71%30.21 "Hg10 mi
11:50 AM50 °FSunny.5 mph71%30.21 "Hg10 mi
11:20 AM50 °FSunny.6 mph76%30.21 "Hg10 mi
10:50 AM48 °FSunny.6 mph76%30.18 "Hg10 mi
10:20 AM46 °FSunny.7 mph87%30.18 "Hg10 mi
9:50 AM46 °FSunny.8 mph87%30.18 "Hg10 mi
9:20 AM46 °FSunny.6 mph87%30.18 "Hg10 mi
8:50 AM46 °FSunny.5 mph87%30.18 "Hg10 mi
8:20 AM45 °FLight fog.3 mph87%30.18 "HgN/A
7:50 AM45 °FLight fog.7 mph93%30.18 "HgN/A
7:20 AM45 °FFog.5 mph93%30.18 "Hg5 mi
6:50 AM45 °FPassing clouds.7 mph100%30.18 "Hg5 mi
6:20 AM43 °FFog.7 mph100%30.18 "Hg1 mi
5:50 AM45 °FFog.7 mph100%30.18 "Hg1 mi
5:20 AM46 °FMostly cloudy.6 mph100%30.18 "Hg4 mi
4:50 AM48 °FPartly cloudy.5 mph94%30.15 "Hg4 mi
4:20 AM48 °FPassing clouds.5 mph100%30.15 "Hg5 mi
3:50 AM48 °FPassing clouds.3 mph100%30.15 "Hg5 mi
3:20 AM50 °FMostly cloudy.3 mph100%30.15 "Hg4 mi
2:50 AM50 °FFog.5 mph100%30.15 "Hg2 mi
2:20 AM50 °FFog.5 mph100%30.15 "Hg1 mi
1:50 AM48 °FFog.5 mph100%30.15 "Hg0 mi
1:20 AM48 °FFog.6 mph100%30.15 "Hg0 mi
12:50 AM48 °FFog.7 mph100%30.18 "Hg1 mi
12:20 AM50 °FFog.6 mph100%30.15 "Hg3 mi
11:50 PM
Sep 17
50 °FLow clouds.6 mph94%30.15 "Hg3 mi
11:20 PM50 °FLow clouds.7 mph94%30.15 "Hg4 mi
10:50 PM50 °FLow clouds.8 mph94%30.15 "Hg5 mi
10:20 PM50 °FMostly cloudy.6 mph94%30.18 "HgN/A
Weather by CustomWeather, © 2014

See weather overviewHow to use our weather pages